Preview of NWS' New Version of Forecast
This preview is not operational and should not be used for support decisions.
Latest weather observations around

Boyd Deep Canyon Reserve (UCNRS) (UCDE)

Using English Units (Switch to International System of Units)
Date/ Time (PDT) Wind (mph) Vis. (mi) Weather Sky Cond. Temp (°F) Rel. Humidity Wind Chill (°F) Heat Index (°F) Pressure Precip. (in)
Air Dwpt 6 hour Altimeter (inHg) Sea level (inHg) 1 hr 3 hr 6 hr
Max Min
Notice The following observation data may not be complete
Jun 24 08:40     Clear            %              
Notice The following observation data may not be complete
Jun 24 08:30     Clear            %              
Jun 24 08:20 NE 3   Clear   90 31     12%   86 29.86        
Jun 24 08:10 NE 2   Clear   89 32     13%   85 29.86        
Jun 24 08:00 NNE 2   Clear   89 35     15%   85 29.85        
Jun 24 07:50 NE 1   Clear   88 35     15%   84 29.85        
Jun 24 07:40 ENE 1   Clear   88 36     16%   84 29.85        
Jun 24 07:30 NE 1   Clear   85 38     19%   82 29.85        
Jun 24 07:20 NE 2   Clear   84 36     18%   81 29.85        
Jun 24 07:10 NE 2   Clear   85 31     14%   82 29.85        
Jun 24 07:00 NE 2   Clear   84 32     15%   81 29.85        
Jun 24 06:50 NNE 2   Clear   83 34     17%   80 29.84        
Jun 24 06:40 NE 2   Clear   81 36     20%   80 29.84        
Jun 24 06:30 NNE 2   Clear   79 38     23%   77 29.84        
Jun 24 06:20 ENE 2   Clear   75 40     28%   73 29.84        
Jun 24 06:10 NE 2   Clear   74 41     30%   73 29.84        
Jun 24 06:00 NE 2   Clear   74 41     30%   73 29.84        
Jun 24 05:50 ENE 3   Clear   74 41     30%   73 29.84        
Jun 24 05:40 E 3   Clear   75 41     30%   73 29.84        
Jun 24 05:30 E 3   Clear   75 42     30%   74 29.84        
Jun 24 05:20 ESE 4   Clear   76 41     29%   74 29.83        
Jun 24 05:10 E 4   Clear   76 41     28%   75 29.83        
Jun 24 05:00 E 4   Clear   77 40     27%   75 29.83        
Jun 24 04:50 E 5   Clear   76 40     27%   75 29.83        
Jun 24 04:40 E 5   Clear   77 40     27%   75 29.83        
Jun 24 04:30 E 4   Clear   77 40     27%   75 29.83        
Jun 24 04:20 E 3   Clear   77 40     27%   75 29.83        
Jun 24 04:10 E 3   Clear   77 40     27%   76 29.83        
Jun 24 04:00 E 3   Clear   77 40     27%   76 29.83        
Jun 24 03:50 E 3   Clear   77 40     27%   76 29.83        
Jun 24 03:40 E 3   Clear   78 41     27%   76 29.83        
Jun 24 03:30 E 3   Clear   78 40     26%   77 29.83        
Jun 24 03:20 E 4   Clear   78 40     26%   77 29.83        
Jun 24 03:10 ENE 4   Clear   78 39     25%   77 29.83        
Jun 24 03:00 ENE 3   Clear   78 39     25%   77 29.83        
Jun 24 02:50 E 3   Clear   79 39     24%   77 29.83        
Jun 24 02:40 E 3   Clear   79 38     23%   78 29.83        
Jun 24 02:30 E 4   Clear   80 39     23%   78 29.83        
Jun 24 02:20 E 4   Clear   82 36     19%   80 29.83        
Jun 24 02:10 ESE 4   Clear   83 32     16%   80 29.83        
Jun 24 02:00 ENE 3   Clear   85 30     14%   82 29.83        
Jun 24 01:50 SSW 8   Clear   87 24     10%   83 29.83        
Jun 24 01:40 SSW 10   Clear   87 24     10%   83 29.83        
Jun 24 01:30 SSW 9   Clear   87 24     10%   83 29.84        
Jun 24 01:20 SSW 9   Clear   87 24     10%   83 29.84        
Jun 24 01:10 SSW 10   Clear   88 25     10%   84 29.84        
Jun 24 01:00 SSW 10   Clear   88 25     10%   84 29.84        
Jun 24 00:30 SW 10   Clear   88        %     29.85        
Jun 24 00:20 SW 11   Clear   88        %     29.85        
Jun 24 00:10 SSW 10   Clear   88        %     29.85        
Jun 24 00:00 SSW 10   Clear   88        %     29.85        
Jun 23 23:50 SSW 11   Clear   88        %     29.85        
Jun 23 23:40 SW 9   Clear   88        %     29.85        
Jun 23 23:30 SSW 10   Clear   89        %     29.85        
Jun 23 23:20 SSW 12   Clear   89 28     11%   85 29.85        
Jun 23 23:10 SSW 12   Clear   89 28     11%   85 29.85        
Jun 23 23:00 SSW 14   Clear   89 28     11%   85 29.85        
Jun 23 22:50 SSW 14   Clear   89 28     11%   85 29.86        
Jun 23 22:40 SSW 15   Clear   89 28     11%   85 29.86        
Jun 23 22:30 SSW 14   Clear   89 30     12%   85 29.86        
Jun 23 22:20 SSW 16   Clear   89 30     12%   85 29.86        
Jun 23 22:10 SSW 16   Clear   89 30     12%   85 29.86        
Jun 23 22:00 SSW 14   Clear   89 32     13%   85 29.86        
Jun 23 21:50 SSW 15   Clear   89 36     15%   86 29.86        
Jun 23 21:40     Clear   90 38     16%   86 29.85        
Jun 23 21:30 SSW 16   Clear   90 38     16%   86 29.85        
Jun 23 21:20 SSW 15   Clear   90 38     16%   86 29.85        
Jun 23 21:10 SSW 15   Clear   90 36     15%   86 29.85        
Jun 23 21:00     Clear   91 37     15%   87 29.85        
Jun 23 20:50     Clear   91 37     15%   87 29.84        
Jun 23 20:40 SSW 13   Clear   91 37     15%   87 29.84        
Jun 23 20:30 SSW 13   Clear   92 36     14%   88 29.84        
Jun 23 20:20 S 6   Clear   92 34     13%   88 29.84        
Jun 23 20:10 E 3   Clear   92 34     13%   88 29.84        
Jun 23 20:00 ENE 4   Clear   93 35     13%   88 29.83        
Jun 23 19:50 NE 4   Clear   94 33     12%   89 29.83        
Jun 23 19:40 NE 4   Clear   94 32     11%   89 29.83        
Jun 23 19:30 NNE 5   Clear   95 32     11%   90 29.83        
Jun 23 19:20 NNE 6   Clear   95 30     10%   90 29.83        
Jun 23 19:10 NNE 6   Clear   96 30     10%   90 29.83        
Jun 23 19:00 N 7   Clear   96 31     10%   91 29.83        
Jun 23 18:30 NNW 1   Clear   102 22     6%   94 29.82        
Jun 23 18:20 NNW 2   Clear   101 22     6%   94 29.82        
Jun 23 18:10 N 2   Clear   101 22     6%   94 29.82        
Jun 23 18:00 N 3   Clear   101 22     6%   93 29.82        
Jun 23 17:50 N 5   Clear   100 21     6%   93 29.83        
Jun 23 17:40 NE 5   Clear   100 22     6%   93 29.83        
Jun 23 17:30 NNE 5   Clear   101 22     6%   93 29.83        
Jun 23 17:20 NE 6   Clear   101 22     6%   93 29.83        
Jun 23 17:10 NNW 3   Clear   101 22     6%   94 29.84        
Jun 23 17:00 NNE 6   Clear   101 22     6%   94 29.84        
Jun 23 16:50 NE 4   Clear   102 22     6%   94 29.84        
Jun 23 16:40 NE 5   Clear   101 22     6%   94 29.85        
Jun 23 16:30 NNE 6   Clear   101 22     6%   94 29.85        
Jun 23 16:20 NNE 5   Clear   101 22     6%   93 29.85        
Jun 23 16:10 N 4   Clear   101 18     5%   93 29.86        
Jun 23 16:00 N 5   Clear   100 22     6%   93 29.86        
Jun 23 15:50 NNE 7   Clear   100 17     5%   93 29.86        
Jun 23 15:40 NE 7   Clear   100 21     6%   93 29.87        
Jun 23 15:30 NE 5   Clear   100 21     6%   93 29.87        
Jun 23 15:20 NE 5   Clear   100 21     6%   93 29.88        
Jun 23 15:10 NE 8   Clear   100 21     6%   93 29.88        
Jun 23 15:00 NNE 7   Clear   100 21     6%   93 29.89        
Jun 23 14:50 N 6   Clear   99 21     6%   92 29.89        
Jun 23 14:40 NNE 7   Clear   100 17     5%   93 29.89        
Jun 23 14:30 N 4   Clear   99 21     6%   92 29.89        
Jun 23 14:20 N 7   Clear   99 21     6%   92 29.9        
Jun 23 14:10 NE 7   Clear   99 21     6%   92 29.9        
Jun 23 14:00 NNE 6   Clear   100 21     6%   93 29.91        
Jun 23 13:50 NE 6   Clear   98 20     6%   91 29.91        
Jun 23 13:40 ENE 6   Clear   98 20     6%   91 29.92        
Jun 23 13:30 E 6   Clear   98 20     6%   91 29.92        
Jun 23 13:20 NE 5   Clear   98 20     6%   91 29.92        
Jun 23 13:10 NNE 7   Clear   99 20     6%   92 29.93        
Notice The following observation data may not be complete
Jun 23 13:00     Clear            %              
Jun 23 11:50 NNE 5   Clear   96 19     6%   89 29.95        
Jun 23 11:40 NE 5   Clear   96 19     6%   90 29.95        
Jun 23 11:30 N 5   Clear   96 19     6%   90 29.96        
Jun 23 11:20 NE 5   Clear   96 22     7%   89 29.96        
Jun 23 11:10 NNE 6   Clear   95 21     7%   89 29.96        
Jun 23 11:00 NE 4   Clear   96 22     7%   89 29.96        
Jun 23 10:50 N 3   Clear   95 22     7%   89 29.96        
Jun 23 10:40 NNE 5   Clear   94 24     8%   88 29.96        
Jun 23 10:30 NE 6   Clear   94 24     8%   88 29.96        
Jun 23 10:20 NNE 4   Clear   94 24     8%   88 29.96        
Jun 23 10:10 NNE 4   Clear   93 23     8%   87 29.96        
Jun 23 10:00 N 4   Clear   93 23     8%   88 29.96        
Jun 23 09:50 N 3   Clear   93        %     29.97        
Jun 23 09:40 N 3   Clear   93        %     29.97        
Jun 23 09:30 NNE 2   Clear   93        %     29.97        
Jun 23 09:20 NNE 3   Clear   92        %     29.97        
Jun 23 09:10 NE 2   Clear   93        %     29.97        
Jun 23 09:00 ENE 2   Clear   92        %     29.97        
Jun 23 08:50 NE 3   Clear   91        %     29.97        
Jun 23 08:40 NNE 2   Clear   90        %     29.97        
Jun 23 08:30 NNE 3   Clear   90        %     29.97        
Jun 23 08:20 NNE 3   Clear   89        %     29.96        
Jun 23 08:10 NE 3   Clear   88        %     29.96        
Jun 23 08:00 NE 2   Clear   88        %     29.96        
Notice The following observation data may not be complete
Jun 23 07:50 NE 3   Clear            %     29.96        
Notice The following observation data may not be complete
Jun 23 07:40 NE 3   Clear            %     29.96        
Notice The following observation data may not be complete
Jun 23 07:30 SSW 3   Clear            %     29.95        
Jun 23 07:20 SW 6   Clear   87        %     29.95        
Jun 23 07:10 SW 8   Clear   86        %     29.95        
Notice The following observation data may not be complete
Jun 23 07:00 WSW 8   Clear            %     29.95        
Notice The following observation data may not be complete
Jun 23 06:50 WSW 10   Clear            %     29.94        
Notice The following observation data may not be complete
Jun 23 06:40 WSW 9   Clear            %     29.94        
Notice The following observation data may not be complete
Jun 23 06:30 WSW 10   Clear            %     29.94        
Notice The following observation data may not be complete
Jun 23 06:20 WSW 11   Clear            %     29.94        
Notice The following observation data may not be complete
Jun 23 06:10 WSW 10   Clear            %     29.94        
Notice The following observation data may not be complete
Jun 23 06:00 WSW 11   Clear            %     29.93        
Notice The following observation data may not be complete
Jun 23 05:20 SW 8   Clear            %     29.93        
Notice The following observation data may not be complete
Jun 23 05:10 SW 8   Clear            %     29.92        
Jun 23 05:00 WSW 9   Clear   81        %     29.92        
Notice The following observation data may not be complete
Jun 23 04:50 WSW 9   Clear            %     29.92        
Jun 23 04:40 SW 10   Clear   81        %     29.92        
Jun 23 04:30 WSW 10   Clear   80        %     29.92        
Jun 23 04:20 SW 2   Clear   74 41     30%   73 29.92        
Jun 23 04:10 E 2   Clear   72 46     39%   71 29.91        
Jun 23 04:00 SE 4   Clear   76 41     28%   75 29.91        
Jun 23 03:50 WSW 6   Clear   75 37     25%   73 29.9        
Jun 23 03:40 NNE 3   Clear   70 52     52%   69 29.91        
Jun 23 03:30 E 2   Clear   71 52     52%   70 29.91        
Jun 23 03:20 E 4   Clear   71 52     52%   70 29.91        
Jun 23 03:10 E 5   Clear   71 52     50%   70 29.91        
Jun 23 03:00 SSE 6   Clear   78 43     28%   77 29.91        
Jun 23 02:50 SW 8   Clear   83        %     29.9        
Jun 23 02:40 SW 10   Clear   83        %     29.9        
Jun 23 02:30 WSW 10   Clear   83        %     29.9        
Jun 23 02:20 WSW 11   Clear   84        %     29.9        
Jun 23 02:10 WSW 11   Clear   84        %     29.9        
Jun 23 02:00 SW 12   Clear   84        %     29.9        
Jun 23 01:50 WSW 11   Clear   84        %     29.91        
Jun 23 01:40 SW 11   Clear   85        %     29.91        
Jun 23 01:30 SW 11   Clear   85        %     29.9        
Jun 23 01:20 SW 12   Clear   85        %     29.9        
Jun 23 01:10 SW 13   Clear   85        %     29.9        
Jun 23 01:00 SW 12   Clear   85        %     29.9        
Jun 23 00:50 WSW 13   Clear   85        %     29.9        
Jun 23 00:40 WSW 12   Clear   86        %     29.9        
Jun 23 00:30 SW 12   Clear   86        %     29.9        
Jun 23 00:20 SW 11   Clear   86        %     29.9        
Jun 23 00:10 SW 11   Clear   86        %     29.91        
Jun 23 00:00 SW 11   Clear   86        %     29.9        
Jun 22 23:50 SW 11   Clear   86        %     29.9        
Jun 22 23:40 SW 7   Clear   85 30     14%   82 29.9        
Jun 22 23:30 SW 5   Clear   86        %     29.9        
Jun 22 23:20 SW 8   Clear   87        %     29.9        
Jun 22 23:10 SW 8   Clear   86        %     29.9        
Jun 22 23:00 SW 7   Clear   86        %     29.9        
Jun 22 22:50 SW 4   Clear   85        %     29.89        
Jun 22 22:40 S 1   Clear   83 42     24%   81 29.89        
Jun 22 22:30 ENE 1   Clear   82 46     29%   80 29.89        
Jun 22 22:20 Calm   Clear   82 48     30%   81 29.89        
Jun 22 22:10 SW 1   Clear   82 48     30%   81 29.89        
Jun 22 22:00 S 1   Clear   83 48     30%   81 29.89        
Jun 22 21:40 ENE 3   Clear   84 46     27%   82 29.87        
Jun 22 21:30 NE 3   Clear   85 46     26%   82 29.87        
Jun 22 21:20 N 1   Clear   86 46     25%   83 29.86        
Jun 22 21:10 NNE 2   Clear   86 46     25%   83 29.86        
Jun 22 21:00 N 2   Clear   86 46     25%   83 29.85        
Jun 22 20:50 NNE 3   Clear   87 45     24%   84 29.85        
Jun 22 20:40 NE 3   Clear   87 45     23%   84 29.85        
Jun 22 20:30 ENE 2   Clear   88 44     22%   85 29.85        
Jun 22 20:20 NNE 3   Clear   89 45     22%   85 29.84        
Jun 22 20:10 NE 4   Clear   89 45     22%   86 29.84        
Jun 22 20:00 NE 7   Clear   90 45     21%   86 29.83        
Jun 22 19:50 NE 8   Clear   90 42     19%   87 29.83        
Jun 22 19:40 NE 7   Clear   91 43     19%   87 29.83        
Jun 22 19:30 NE 7   Clear   92 41     17%   88 29.82        
Jun 22 19:20 NNE 7   Clear   93 38     15%   89 29.82        
Jun 22 19:10 NNE 7   Clear   94        %     29.82        
Jun 22 19:00 NNE 7   Clear   95        %     29.82        
Jun 22 18:50 NNE 7   Clear   96 30     10%   90 29.82        
Jun 22 18:40 NE 6   Clear   97 26     8%   91 29.82        
Jun 22 18:30 NNE 4   Clear   97 26     8%   91 29.82        
Jun 22 18:20 NNE 7   Clear   98 26     8%   91 29.82        
Jun 22 18:10 NNE 4   Clear   98 27     8%   92 29.82        
Jun 22 18:00 NNE 7   Clear   98 27     8%   92 29.82        
Jun 22 17:50 N 3   Clear   98 27     8%   92 29.82        
Jun 22 17:40 NNE 6   Clear   98 27     8%   91 29.82        
Jun 22 17:30 NE 4   Clear   98 27     8%   92 29.82        
Jun 22 17:20 ENE 6   Clear   97 26     8%   91 29.82        
Jun 22 17:10 ENE 4   Clear   98 26     8%   91 29.82        
Jun 22 17:00 NE 8   Clear   98 27     8%   91 29.82        
Jun 22 16:50 NE 5   Clear   98 27     8%   92 29.82        
Jun 22 16:40 NNE 4   Clear   98 26     8%   91 29.83        
Jun 22 16:30 ENE 4   Clear   98 23     7%   91 29.83        
Jun 22 16:20 NNE 7   Clear   98 23     7%   91 29.83        
Jun 22 16:10 N 7   Clear   98 26     8%   91 29.83        
Jun 22 16:00 ENE 6   Clear   97 26     8%   91 29.83        
Jun 22 15:50 NE 7   Clear   98 27     8%   92 29.83        
Jun 22 15:40 NNE 3   Clear   98 26     8%   91 29.84        
Jun 22 15:30 NNE 7   Clear   98 26     8%   91 29.84        
Jun 22 15:20 NNE 6   Clear   97 26     8%   91 29.84        
Jun 22 15:10 NNE 8   Clear   97 26     8%   91 29.84        
Jun 22 15:00 ENE 5   Clear   96 25     8%   90 29.85        
Jun 22 14:30 NNW 5   Clear   97 26     8%   91 29.85        
Jun 22 14:20 N 5   Clear   97 26     8%   91 29.85        
Jun 22 14:10 N 5   Clear   96 25     8%   90 29.86        
Jun 22 14:00 NNE 6   Clear   97 26     8%   91 29.86        
Jun 22 13:50 WNW 3   Clear   96 25     8%   89 29.86        
Jun 22 13:40 NNE 6   Clear   95 24     8%   89 29.87        
Jun 22 13:30 NNE 7   Clear   95 27     9%   89 29.87        
Jun 22 13:20 NNE 8   Clear   95 27     9%   89 29.87        
Jun 22 13:10 SW 5   Clear   95 27     9%   89 29.87        
Jun 22 13:00 NW 3   Clear   94 26     9%   88 29.88        
Jun 22 12:50 N 6   Clear   94 27     9%   88 29.88        
Jun 22 12:40 NE 4   Clear   93 29     10%   88 29.89        
Jun 22 12:30 NNE 6   Clear   94 29     10%   88 29.89        
Jun 22 12:20 NNE 6   Clear   93 28     10%   88 29.89        
Jun 22 12:10 N 5   Clear   93 28     10%   87 29.89        
Jun 22 12:00 NNE 8   Clear   92 28     10%   87 29.89        
Jun 22 11:50 NE 8   Clear   92 30     11%   87 29.89        
Jun 22 11:40 NNE 4   Clear   93 31     11%   88 29.89        
Jun 22 11:30 NE 4   Clear   92 32     12%   87 29.89        
Jun 22 11:20 NE 5   Clear   91 33     13%   87 29.89        
Jun 22 11:10 NE 7   Clear   90 34     14%   86 29.89        
Jun 22 11:00 NNE 6   Clear   90 34     14%   86 29.89        
Jun 22 10:50 NNE 7   Clear   89 34     14%   85 29.89        
Jun 22 10:40 NE 5   Clear   89 37     16%   85 29.89        
Jun 22 10:30 NE 6   Clear   88 41     19%   84 29.89        
Jun 22 10:20 NE 6   Clear   88 41     19%   84 29.89        
Jun 22 10:10 NE 6   Clear   88 40     19%   84 29.89        
Jun 22 10:00 NE 7   Clear   87 40     19%   84 29.89        
Jun 22 09:50 NE 6   Clear   86 42     21%   83 29.88        
Jun 22 09:40 NE 7   Clear   85 43     23%   82 29.88        
Jun 22 09:30 NE 5   Clear   86 42     21%   83 29.88        
Jun 22 09:20 NE 3   Clear   86 43     22%   83 29.88        
Jun 22 09:10 NE 3   Clear   85 44     24%   82 29.88        
Jun 22 09:00 NE 3   Clear   84 44     25%   81 29.88        
Jun 22 08:50 NE 4   Clear   83 46     28%   81 29.88        
Jun 22 08:40 NE 3   Clear   83 47     28%   81 29.88        
Jun 22 08:30 NE 1   Clear   83 48     29%   81 29.88        
Jun 22 08:20 NNE 2   Clear   81 48     32%   80 29.88        
Jun 22 08:10 NE 2   Clear   80 48     33%   79 29.87        
Jun 22 08:00 NNE 2   Clear   79 47     33%   78 29.87        
Jun 22 07:50 NE 4   Clear   79 47     32%   78 29.86        
Jun 22 07:40 NE 2   Clear   80 46     30%   79 29.86        
Jun 22 07:30 N 1   Clear   80 47     32%   79 29.85        
Jun 22 07:20 NNE 1   Clear   78 47     34%   77 29.84        
Jun 22 07:10 WSW 2   Clear   77 48     36%   76 29.84        
Jun 22 07:00 NNE 1   Clear   77 49     37%   76 29.83        
Jun 22 06:50 SW 1   Clear   75 49     41%   74 29.83        
Jun 22 06:40 SSW 1   Clear   72 50     45%   71 29.82        
Jun 22 06:30 SSW 1   Clear   70 50     49%     29.82        
Jun 22 06:20 WSW 1   Clear   67 50     54%     29.82        
Jun 22 06:10 Calm   Clear   67 50     55%     29.82        
Jun 22 06:00 ESE 1   Clear   67 50     55%     29.82        
Jun 22 05:50 NE 2   Clear   67 49     53%     29.82        
Jun 22 05:40 ENE 2   Clear   68 48     48%     29.81        
Jun 22 05:30 WSW 2   Clear   69 48     48%     29.81        
Jun 22 05:20 SW 4   Clear   68 48     50%     29.8        
Jun 22 05:10 WSW 1   Clear   67 49     52%     29.8        
Jun 22 05:00 SW 1   Clear   67 49     52%     29.8        
Jun 22 04:50 ESE 1   Clear   67 49     53%     29.8        
Jun 22 04:40 WSW 1   Clear   67 49     53%     29.8        
Jun 22 04:30 WSW 1   Clear   67 50     54%     29.79        
Jun 22 04:20 NE 1   Clear   67 49     53%     29.79        
Jun 22 04:10 SW 2   Clear   68 49     52%     29.79        
Jun 22 04:00 SW 1   Clear   68 50     52%     29.79        
Jun 22 03:50 S 1   Clear   68 49     52%     29.79        
Jun 22 03:40 SW 3   Clear   68 50     52%     29.79        
Jun 22 03:30 S 1   Clear   67 50     54%     29.79        
Jun 22 03:20 SSW 4   Clear   67 50     55%     29.79        
Jun 22 03:10 WNW 1   Clear   67 50     54%     29.78        
Jun 22 03:00 SSW 2   Clear   67 50     54%     29.78        
Jun 22 02:50 ENE 1   Clear   67 50     54%     29.78        
Jun 22 02:40 E 2   Clear   67 50     54%     29.77        
Jun 22 02:30 Calm   Clear   68 50     54%     29.77        
Jun 22 02:20 SSE 2   Clear   68 51     54%     29.77        
Jun 22 02:10 ESE 3   Clear   68 51     54%     29.77        
Notice The following observation data may not be complete
Jun 22 02:00     Clear            %              
Jun 22 01:20 ESE 1   Clear   70 50     49%   69 29.76        
Jun 22 01:10 SSW 2   Clear   70 50     49%   69 29.77        
Jun 22 01:00 NW 2   Clear   71 50     48%   70 29.77        
Jun 22 00:50 ESE 2   Clear   70 50     49%   69 29.76        
Jun 22 00:40 NE 3   Clear   70 50     49%   69 29.77        
Jun 22 00:30 Calm   Clear   71 50     48%   70 29.76        
Jun 22 00:20 SE 1   Clear   71 50     48%   70 29.76        
Jun 22 00:10 E 1   Clear   71 51     49%   70 29.76        
Jun 22 00:00 SE 1   Clear   71 50     49%   70 29.76        
Jun 21 23:50 E 3   Clear   71 51     50%   70 29.76        
Jun 21 23:40 ESE 4   Clear   71 51     50%   70 29.75        
Jun 21 23:30 N 6   Clear   75 48     39%   74 29.75        
Jun 21 23:20 SSW 8   Clear   77 43     29%   76 29.75        
Jun 21 23:10 S 7   Clear   74 46     38%   72 29.75        
Jun 21 23:00 N 7   Clear   73 50     44%   72 29.75        
Jun 21 22:50 NNE 4   Clear   72 50     46%   71 29.75        
Jun 21 22:40 NNE 3   Clear   72 50     47%   71 29.75        
Jun 21 22:30 ENE 3   Clear   72 51     47%   71 29.75        
Jun 21 22:20 ENE 2   Clear   73 50     44%   72 29.75        
Jun 21 22:10 NW 3   Clear   73 50     44%   72 29.75        
Jun 21 22:00 NE 4   Clear   73 50     44%   72 29.75        
Jun 21 21:50 W 11   Clear   76 46     34%   75 29.74        
Jun 21 21:40 SW 14   Clear   77 43     30%   76 29.73        
Jun 21 21:30 SW 16   Clear   78 42     28%   77 29.72        
Jun 21 21:20 SW 11   Clear   78 43     29%   77 29.72        
Jun 21 21:10 SW 7   Clear   76 47     35%   75 29.73        
Jun 21 21:00 E 5   Clear   76 48     38%   75 29.73        
Jun 21 20:50 ENE 8   Clear   77 48     36%   76 29.72        
Jun 21 20:40 NE 6   Clear   79 45     31%   78 29.72        
Jun 21 20:30 ENE 6   Clear   79 44     29%   78 29.72        
Jun 21 20:20 NE 6   Clear   79 46     31%   78 29.72        
Jun 21 20:10 E 4   Clear   80 46     31%   79 29.72        
Jun 21 20:00 E 5   Clear   80 45     29%   80 29.72        
Jun 21 19:50 NNE 8   Clear   81 45     28%   80 29.72        
Jun 21 19:40 NNE 7   Clear   82 46     29%   80 29.72        
Jun 21 19:30 SSW 6   Clear   83 43     24%   81 29.72        
Jun 21 19:20 SSW 8   Clear   83 43     24%   81 29.72        
Jun 21 19:10 SSW 11   Clear   84 42     23%   81 29.71        
Jun 21 19:00 NNE 4   Clear   84 45     26%   82 29.71        
Jun 21 18:50 NNE 4   Clear   86 45     24%   83 29.71        
Jun 21 18:40 N 6   Clear   86 45     24%   83 29.71        
Jun 21 18:30 NNE 8   Clear   87 45     23%   84 29.71        
Jun 21 18:20 NNE 8   Clear   88 45     23%   84 29.71        
Jun 21 18:10 NNE 9   Clear   88 44     22%   85 29.7        
Jun 21 18:00 NNE 9   Clear   89 45     22%   86 29.7        
Jun 21 17:50 N 6   Clear   90 45     21%   86 29.7        
Jun 21 17:40 NNE 5   Clear   90 45     21%   86 29.7        
Jun 21 17:30 N 7   Clear   90 45     21%   87 29.7        
Jun 21 17:20 NNE 9   Clear   90 45     21%   87 29.7        
Jun 21 17:10 NE 9   Clear   90 45     21%   86 29.7        
Jun 21 17:00 N 7   Clear   90 44     20%   87 29.71        
Jun 21 16:50 NNE 9   Clear   91 44     20%   87 29.71        
Jun 21 16:40 N 9   Clear   90 44     20%   86 29.71        
Jun 21 16:30 NNE 10   Clear   91 44     20%   87 29.71        
Jun 21 16:20 NNE 10   Clear   91 44     20%   87 29.71        
Jun 21 16:10 N 8   Clear   90 44     20%   87 29.71        
Jun 21 16:00 N 8   Clear   90 44     20%   87 29.72        
Jun 21 15:50 NNE 9   Clear   91 44     20%   87 29.72        
Jun 21 15:40 N 7   Clear   90 43     20%   86 29.72        
Jun 21 15:30 N 7   Clear   90 43     19%   87 29.73        
Jun 21 15:20 NNE 9   Clear   90 44     20%   86 29.73        
Jun 21 15:10 N 6   Clear   89 44     21%   86 29.74        
Jun 21 15:00 NNE 8   Clear   89 44     21%   85 29.74        
Jun 21 14:50 N 6   Clear   89 44     21%   85 29.74        
Jun 21 14:40 N 9   Clear   87 44     22%   84 29.75        
Jun 21 14:30 N 9   Clear   88 43     21%   84 29.75        
Jun 21 14:20 NNE 10   Clear   87 43     21%   84 29.75        
Jun 21 14:10 NNE 9   Clear   88 43     21%   84 29.75        
Jun 21 14:00 NNE 10   Clear   88 42     20%   85 29.76        
Jun 21 13:50 NNE 8   Clear   88 41     19%   85 29.76        
Jun 21 13:40 NNE 8   Clear   88 40     19%   84 29.77        
Jun 21 13:30 N 7   Clear   88 40     19%   84 29.77        
Jun 21 13:20 N 9   Clear   87 40     19%   84 29.77        
Jun 21 13:10 N 7   Clear   87 41     20%   83 29.77        
Jun 21 13:00 N 7   Clear   87 42     21%   83 29.77        
Jun 21 12:50 NNE 7   Clear   86 42     21%   83 29.77        
Jun 21 12:40 NNE 8   Clear   86 43     22%   83 29.78        
Jun 21 12:30 NNE 8   Clear   86 44     23%   83 29.78        
Jun 21 12:20 NNE 8   Clear   86 44     23%   83 29.78        
Jun 21 12:10 NNE 8   Clear   86 43     22%   83 29.78        
Jun 21 12:00 NNE 7   Clear   86 44     23%   83 29.78        
Jun 21 11:50 NNE 6   Clear   86 44     23%   83 29.77        
Jun 21 11:40 ENE 6   Clear   86 44     23%   83 29.78        
Jun 21 11:30 ESE 5   Clear   85 44     24%   82 29.78        
Jun 21 11:20 E 5   Clear   84 44     25%   82 29.78        
Jun 21 11:10 E 7   Clear   83 44     26%   81 29.78        
Jun 21 11:00 E 8   Clear   83 45     27%   81 29.78        
Jun 21 10:50 E 6   Clear   82 46     28%   81 29.78        
Jun 21 10:40 E 7   Clear   82 46     29%   80 29.78        
Jun 21 10:30 ESE 6   Clear   82 46     29%   80 29.78        
Jun 21 10:20 E 5   Clear   81 46     29%   80 29.77        
Jun 21 10:10 E 6   Clear   81 45     29%   80 29.77        
Jun 21 10:00 ESE 7   Clear   80 46     30%   79 29.77        
Jun 21 09:50 SE 6   Clear   81 45     28%   80 29.77        
Jun 21 09:40 ESE 4   Clear   81 45     28%   80 29.77        
Jun 21 09:30 WSW 3   Clear   82 43     26%   80 29.77        
Jun 21 09:20 ENE 2   Clear   81 43     26%   80 29.77        
Jun 21 09:10 E 2   Clear   81 44     27%   80 29.76        
Jun 21 09:00 SE 4   Clear   80 45     29%   79 29.77        
Jun 21 08:50 E 3   Clear   80 44     28%   79 29.77        
Jun 21 08:40 E 2   Clear   79 44     29%   78 29.77        
Jun 21 08:30 ESE 3   Clear   78 44     30%   77 29.77        
Jun 21 08:20 E 2   Clear   77 44     31%   76 29.77        
May 15 09:50 N 5   Clear   76 44     31%   75 29.9        
May 15 09:20 N 3   Clear   75 43     32%   74 29.9        
May 15 05:00 Calm   Clear   63 46     55%     29.82        
May 14 23:50 NE 3   Clear   70 45     40%     29.82        
May 14 18:50 N 5   Clear   81 42     25%   80 29.77        
May 14 18:00 NNW 8   Clear   85 38     19%   82 29.77        
May 14 16:20 N 4   Clear   86        %     29.79        
May 14 15:50 NNW 6   Clear   85 27     12%   82 29.79        
May 14 14:30 NE 5   Clear   85 28     13%   81 29.82        
May 14 10:40 N 6   Clear   77 41     27%   76 29.87        
May 14 09:30 N 4   Clear   75 39     27%   73 29.86        
May 14 09:10 N 4   Clear   73 40     30%   72 29.86        
May 14 09:00 N 4   Clear   72 41     33%   71 29.86        
May 14 06:30 NE 3   Clear   59 43     56%     29.82        
May 14 03:30 NNE 3   Clear   62 46     56%     29.81        
May 14 00:40 Calm   Clear   65 44     47%     29.82        
May 13 18:30 NNW 7   Clear   78 40     26%   77 29.8        
May 13 16:50 NNW 6   Clear   81 39     23%   79 29.81        
May 13 16:00 NNW 6   Clear   79 40     25%   77 29.82        
May 13 12:40 NE 7   Clear   77 40     27%   75          
May 13 07:40 NNW 3   Clear   65 43     44%     29.86        
Notice The following observation data may not be complete
May 13 07:20     Clear            %              
May 13 07:10 NNE 3   Clear   66 43     43%     29.85        
May 13 03:00 Calm   Clear   61 42     50%     29.8        
May 13 02:10 NNE 3   Clear   63 40     44%     29.79        
May 12 16:00 NNW 7   Clear   79 40     25%   78 29.76        
May 12 12:10 NNW 7   Clear   75 41     29%   74 29.81        
May 12 11:40 N 5   Clear   74 42     31%   73 29.82        
May 12 00:40     Clear   66 34     31%     29.65        
May 11 23:10 W 7   Clear   65 41     40%     29.65        
May 11 22:30 WSW 12   Clear   67 36     32%     29.66        
May 11 22:00     Clear   66 38     36%              
May 11 18:00     Clear   81 37     21%   79 29.59        
Notice The following observation data may not be complete
May 11 11:20     Clear            %